contact:dominique.lefevre@mio.osupytheas.fr, maurice.libes@osupytheas.fr, didier.mallarino@osupytheas.fr
Project:EMSO http://www.emso-fr.org/EMSO-France
Depth: 2436.0 m
Title:EMSO Ligure Ouest : Data MII capteur MICROCAT
DateTime_Computer,Latitude,Longitude,Temperature,Conductivity,Pressure,DateTime_Instrument
DateTime_Computer,Latitude,Longitude,degC,S m-1,dbar,DateTime_Instrument
2021-05-03T00:02:35Z,42.805,6.029,13.2982,4.59989,2470.04,2021-5-03T02:03:45Z
2021-05-03T00:05:39Z,42.805,6.029,13.2986,4.59991,2469.993,2021-5-03T02:06:49Z
2021-05-03T00:08:42Z,42.805,6.029,13.2987,4.59991,2470.04,2021-5-03T02:09:52Z
2021-05-03T00:11:45Z,42.805,6.029,13.2988,4.59990,2470.007,2021-5-03T02:12:55Z
2021-05-03T00:14:48Z,42.805,6.029,13.2984,4.59991,2470.053,2021-5-03T02:15:58Z
2021-05-03T00:17:51Z,42.805,6.029,13.2984,4.59991,2470.017,2021-5-03T02:19:01Z
2021-05-03T00:20:54Z,42.805,6.029,13.2986,4.59994,2470.003,2021-5-03T02:22:04Z
2021-05-03T00:23:57Z,42.805,6.029,13.2982,4.59992,2470.04,2021-5-03T02:25:07Z
2021-05-03T00:27:00Z,42.805,6.029,13.2982,4.59989,2470.04,2021-5-03T02:28:10Z
2021-05-03T00:30:04Z,42.805,6.029,13.2987,4.59991,2470.04,2021-5-03T02:31:14Z
2021-05-03T00:33:07Z,42.805,6.029,13.2987,4.59991,2470.04,2021-5-03T02:34:17Z
2021-05-03T00:36:10Z,42.805,6.029,13.2985,4.59992,2469.993,2021-5-03T02:37:20Z
2021-05-03T00:39:13Z,42.805,6.029,13.2981,4.59990,2470.017,2021-5-03T02:40:23Z
2021-05-03T00:42:16Z,42.805,6.029,13.2986,4.59991,2469.993,2021-5-03T02:43:26Z
2021-05-03T00:45:19Z,42.805,6.029,13.2990,4.59990,2469.993,2021-5-03T02:46:29Z
2021-05-03T00:48:22Z,42.805,6.029,13.2985,4.59993,2470.04,2021-5-03T02:49:32Z
2021-05-03T00:51:25Z,42.805,6.029,13.2988,4.59995,2470.017,2021-5-03T02:52:35Z
2021-05-03T00:54:28Z,42.805,6.029,13.2984,4.59992,2470.017,2021-5-03T02:55:39Z
2021-05-03T00:57:32Z,42.805,6.029,13.2985,4.59990,2470.03,2021-5-03T02:58:42Z
2021-05-03T01:00:35Z,42.805,6.029,13.2986,4.59994,2470.017,2021-5-03T03:01:45Z
2021-05-03T01:03:38Z,42.805,6.029,13.2985,4.59990,2470.017,2021-5-03T03:04:48Z
2021-05-03T01:06:41Z,42.805,6.029,13.2984,4.59990,2470.007,2021-5-03T03:07:51Z
2021-05-03T01:09:44Z,42.805,6.029,13.2983,4.59991,2470.017,2021-5-03T03:10:54Z
2021-05-03T01:12:47Z,42.805,6.029,13.2981,4.59994,2469.956,2021-5-03T03:13:57Z
2021-05-03T01:15:50Z,42.805,6.029,13.2983,4.59991,2470.017,2021-5-03T03:17:00Z
2021-05-03T01:18:53Z,42.805,6.029,13.2985,4.59991,2470.017,2021-5-03T03:20:03Z
2021-05-03T01:21:57Z,42.805,6.029,13.2985,4.59992,2469.993,2021-5-03T03:23:07Z
2021-05-03T01:25:00Z,42.805,6.029,13.2990,4.59992,2470.04,2021-5-03T03:26:10Z
2021-05-03T01:28:03Z,42.805,6.029,13.2986,4.59992,2470.003,2021-5-03T03:29:13Z
2021-05-03T01:31:06Z,42.805,6.029,13.2982,4.59992,2470.017,2021-5-03T03:32:16Z
2021-05-03T01:34:09Z,42.805,6.029,13.2983,4.59992,2469.993,2021-5-03T03:35:19Z
2021-05-03T01:37:12Z,42.805,6.029,13.2988,4.59991,2469.993,2021-5-03T03:38:22Z
2021-05-03T01:40:15Z,42.805,6.029,13.2984,4.59991,2470.03,2021-5-03T03:41:25Z
2021-05-03T01:43:18Z,42.805,6.029,13.2986,4.59994,2469.97,2021-5-03T03:44:28Z
2021-05-03T01:46:21Z,42.805,6.029,13.2984,4.59993,2470.03,2021-5-03T03:47:32Z
2021-05-03T01:49:25Z,42.805,6.029,13.2988,4.59992,2470.017,2021-5-03T03:50:35Z
2021-05-03T01:52:28Z,42.805,6.029,13.2986,4.59991,2470.017,2021-5-03T03:53:38Z
2021-05-03T01:55:31Z,42.805,6.029,13.2986,4.59994,2470.017,2021-5-03T03:56:41Z
2021-05-03T01:58:34Z,42.805,6.029,13.2987,4.59992,2470.017,2021-5-03T03:59:44Z
2021-05-03T02:01:37Z,42.805,6.029,13.2986,4.59993,2469.993,2021-5-03T04:02:47Z
2021-05-03T02:04:40Z,42.805,6.029,13.2984,4.59992,2469.993,2021-5-03T04:05:50Z
2021-05-03T02:07:43Z,42.805,6.029,13.2987,4.59992,2470.03,2021-5-03T04:08:53Z
2021-05-03T02:10:46Z,42.805,6.029,13.2983,4.59992,2470.003,2021-5-03T04:11:56Z
2021-05-03T02:13:50Z,42.805,6.029,13.2986,4.59992,2470.017,2021-5-03T04:15:00Z
2021-05-03T02:16:53Z,42.805,6.029,13.2989,4.59992,2469.993,2021-5-03T04:18:03Z
2021-05-03T02:19:56Z,42.805,6.029,13.2983,4.59994,2470.03,2021-5-03T04:21:06Z
2021-05-03T02:22:59Z,42.805,6.029,13.2986,4.59991,2469.97,2021-5-03T04:24:09Z
2021-05-03T02:26:02Z,42.805,6.029,13.2989,4.59994,2469.993,2021-5-03T04:27:12Z
2021-05-03T02:29:05Z,42.805,6.029,13.2986,4.59993,2469.993,2021-5-03T04:30:15Z
2021-05-03T02:32:08Z,42.805,6.029,13.2983,4.59993,2469.993,2021-5-03T04:33:18Z
2021-05-03T02:35:11Z,42.805,6.029,13.2983,4.59990,2469.984,2021-5-03T04:36:21Z
2021-05-03T02:38:15Z,42.805,6.029,13.2986,4.59993,2470.017,2021-5-03T04:39:25Z
2021-05-03T02:41:18Z,42.805,6.029,13.2983,4.59993,2470.007,2021-5-03T04:42:28Z
2021-05-03T02:44:21Z,42.805,6.029,13.2987,4.59993,2470.007,2021-5-03T04:45:31Z
2021-05-03T02:47:24Z,42.805,6.029,13.2984,4.59994,2470.017,2021-5-03T04:48:34Z
2021-05-03T02:50:27Z,42.805,6.029,13.2990,4.59993,2469.993,2021-5-03T04:51:37Z
2021-05-03T02:53:30Z,42.805,6.029,13.2987,4.59994,2470.017,2021-5-03T04:54:40Z
2021-05-03T02:56:33Z,42.805,6.029,13.2986,4.59996,2469.993,2021-5-03T04:57:43Z
2021-05-03T02:59:36Z,42.805,6.029,13.2984,4.59991,2469.97,2021-5-03T05:00:46Z
2021-05-03T03:02:39Z,42.805,6.029,13.2986,4.59994,2469.993,2021-5-03T05:03:49Z
2021-05-03T03:05:43Z,42.805,6.029,13.2986,4.59992,2469.984,2021-5-03T05:06:53Z
2021-05-03T03:08:46Z,42.805,6.029,13.2991,4.59994,2469.947,2021-5-03T05:09:56Z
2021-05-03T03:11:49Z,42.805,6.029,13.2983,4.59991,2470.007,2021-5-03T05:12:59Z
2021-05-03T03:14:52Z,42.805,6.029,13.2984,4.59993,2469.993,2021-5-03T05:16:02Z
2021-05-03T03:17:55Z,42.805,6.029,13.2981,4.59992,2469.97,2021-5-03T05:19:05Z
2021-05-03T03:20:58Z,42.805,6.029,13.2984,4.59993,2470.007,2021-5-03T05:22:08Z
2021-05-03T03:24:01Z,42.805,6.029,13.2987,4.59998,2469.947,2021-5-03T05:25:11Z
2021-05-03T03:27:04Z,42.805,6.029,13.2988,4.59992,2469.993,2021-5-03T05:28:14Z
2021-05-03T03:30:08Z,42.805,6.029,13.2985,4.59993,2470.007,2021-5-03T05:31:18Z
2021-05-03T03:33:11Z,42.805,6.029,13.2986,4.59994,2469.984,2021-5-03T05:34:21Z
2021-05-03T03:36:14Z,42.805,6.029,13.2987,4.59993,2469.96,2021-5-03T05:37:24Z
2021-05-03T03:39:17Z,42.805,6.029,13.2987,4.59992,2469.97,2021-5-03T05:40:27Z
2021-05-03T03:42:20Z,42.805,6.029,13.2986,4.59994,2469.984,2021-5-03T05:43:30Z
2021-05-03T03:45:23Z,42.805,6.029,13.2985,4.59992,2469.993,2021-5-03T05:46:33Z
2021-05-03T03:48:26Z,42.805,6.029,13.2986,4.59992,2469.97,2021-5-03T05:49:36Z
2021-05-03T03:51:29Z,42.805,6.029,13.2986,4.59994,2469.96,2021-5-03T05:52:39Z
2021-05-03T03:54:32Z,42.805,6.029,13.2986,4.59991,2469.937,2021-5-03T05:55:43Z
2021-05-03T03:57:36Z,42.805,6.029,13.2986,4.59992,2469.97,2021-5-03T05:58:46Z
2021-05-03T04:00:39Z,42.805,6.029,13.2985,4.59991,2469.984,2021-5-03T06:01:49Z
2021-05-03T04:03:42Z,42.805,6.029,13.2982,4.59992,2469.97,2021-5-03T06:04:52Z
2021-05-03T04:06:45Z,42.805,6.029,13.2985,4.59994,2469.923,2021-5-03T06:07:55Z
2021-05-03T04:09:48Z,42.805,6.029,13.2988,4.59991,2469.947,2021-5-03T06:10:58Z
2021-05-03T04:12:51Z,42.805,6.029,13.2983,4.59991,2469.97,2021-5-03T06:14:01Z
2021-05-03T04:15:54Z,42.805,6.029,13.2986,4.59992,2469.923,2021-5-03T06:17:04Z
2021-05-03T04:18:57Z,42.805,6.029,13.2986,4.59992,2469.96,2021-5-03T06:20:07Z
2021-05-03T04:22:00Z,42.805,6.029,13.2986,4.59991,2469.97,2021-5-03T06:23:11Z
2021-05-03T04:25:04Z,42.805,6.029,13.2986,4.59992,2469.947,2021-5-03T06:26:14Z
2021-05-03T04:28:07Z,42.805,6.029,13.2984,4.59991,2469.96,2021-5-03T06:29:17Z
2021-05-03T04:31:10Z,42.805,6.029,13.2981,4.59992,2469.947,2021-5-03T06:32:20Z
2021-05-03T04:34:13Z,42.805,6.029,13.2983,4.59991,2469.947,2021-5-03T06:35:23Z
2021-05-03T04:37:16Z,42.805,6.029,13.2987,4.59993,2469.97,2021-5-03T06:38:26Z
2021-05-03T04:40:19Z,42.805,6.029,13.2984,4.59994,2469.97,2021-5-03T06:41:29Z
2021-05-03T04:43:22Z,42.805,6.029,13.2985,4.59995,2469.96,2021-5-03T06:44:32Z
2021-05-03T04:46:25Z,42.805,6.029,13.2984,4.59992,2469.96,2021-5-03T06:47:35Z
2021-05-03T04:49:29Z,42.805,6.029,13.2986,4.59992,2469.947,2021-5-03T06:50:39Z
2021-05-03T04:52:32Z,42.805,6.029,13.2986,4.59992,2469.947,2021-5-03T06:53:42Z
2021-05-03T04:55:35Z,42.805,6.029,13.2987,4.59993,2470.007,2021-5-03T06:56:45Z
2021-05-03T04:58:38Z,42.805,6.029,13.2990,4.59990,2469.984,2021-5-03T06:59:48Z
2021-05-03T05:01:41Z,42.805,6.029,13.2986,4.59995,2469.96,2021-5-03T07:02:51Z
2021-05-03T05:04:44Z,42.805,6.029,13.2979,4.59992,2469.984,2021-5-03T07:05:54Z
2021-05-03T05:07:47Z,42.805,6.029,13.2988,4.59990,2469.923,2021-5-03T07:08:57Z
2021-05-03T05:10:50Z,42.805,6.029,13.2989,4.59991,2469.96,2021-5-03T07:12:00Z
2021-05-03T05:13:53Z,42.805,6.029,13.2983,4.59993,2469.923,2021-5-03T07:15:04Z
2021-05-03T05:16:57Z,42.805,6.029,13.2985,4.59991,2469.947,2021-5-03T07:18:07Z
2021-05-03T05:20:00Z,42.805,6.029,13.2986,4.59992,2469.937,2021-5-03T07:21:10Z
2021-05-03T05:23:03Z,42.805,6.029,13.2987,4.59993,2469.97,2021-5-03T07:24:13Z
2021-05-03T05:26:06Z,42.805,6.029,13.2983,4.59992,2469.947,2021-5-03T07:27:16Z
2021-05-03T05:29:09Z,42.805,6.029,13.2984,4.59992,2469.923,2021-5-03T07:30:19Z
2021-05-03T05:32:12Z,42.805,6.029,13.2987,4.59990,2469.947,2021-5-03T07:33:22Z
2021-05-03T05:35:15Z,42.805,6.029,13.2982,4.59991,2469.947,2021-5-03T07:36:25Z
2021-05-03T05:38:18Z,42.805,6.029,13.2986,4.59991,2469.937,2021-5-03T07:39:28Z
2021-05-03T05:41:22Z,42.805,6.029,13.2986,4.59991,2469.97,2021-5-03T07:42:32Z
2021-05-03T05:44:25Z,42.805,6.029,13.2986,4.59993,2469.937,2021-5-03T07:45:35Z
2021-05-03T05:47:28Z,42.805,6.029,13.2986,4.59991,2469.923,2021-5-03T07:48:38Z
2021-05-03T05:50:31Z,42.805,6.029,13.2988,4.59991,2469.923,2021-5-03T07:51:41Z
2021-05-03T05:53:34Z,42.805,6.029,13.2984,4.59991,2469.947,2021-5-03T07:54:44Z
2021-05-03T05:56:37Z,42.805,6.029,13.2986,4.59991,2469.937,2021-5-03T07:57:47Z
2021-05-03T05:59:40Z,42.805,6.029,13.2983,4.59991,2469.914,2021-5-03T08:00:50Z
2021-05-03T06:02:43Z,42.805,6.029,13.2987,4.59990,2469.937,2021-5-03T08:03:53Z
2021-05-03T06:05:47Z,42.805,6.029,13.2987,4.59990,2469.9,2021-5-03T08:06:57Z
2021-05-03T06:08:50Z,42.805,6.029,13.2986,4.59991,2469.947,2021-5-03T08:10:00Z
2021-05-03T06:11:53Z,42.805,6.029,13.2984,4.59991,2469.923,2021-5-03T08:13:03Z
2021-05-03T06:14:56Z,42.805,6.029,13.2987,4.59991,2469.947,2021-5-03T08:16:06Z
2021-05-03T06:17:59Z,42.805,6.029,13.2990,4.59990,2469.923,2021-5-03T08:19:09Z
2021-05-03T06:21:02Z,42.805,6.029,13.2983,4.59989,2469.923,2021-5-03T08:22:12Z
2021-05-03T06:24:05Z,42.805,6.029,13.2990,4.59992,2469.914,2021-5-03T08:25:15Z
2021-05-03T06:27:08Z,42.805,6.029,13.2984,4.59992,2469.914,2021-5-03T08:28:18Z
2021-05-03T06:30:11Z,42.805,6.029,13.2986,4.59991,2469.923,2021-5-03T08:31:22Z
2021-05-03T06:33:15Z,42.805,6.029,13.2985,4.59991,2469.923,2021-5-03T08:34:25Z
2021-05-03T06:36:18Z,42.805,6.029,13.2986,4.59991,2469.947,2021-5-03T08:37:28Z
2021-05-03T06:39:21Z,42.805,6.029,13.2986,4.59991,2469.914,2021-5-03T08:40:31Z
2021-05-03T06:42:24Z,42.805,6.029,13.2990,4.59989,2469.914,2021-5-03T08:43:34Z
2021-05-03T06:45:27Z,42.805,6.029,13.2985,4.59991,2469.9,2021-5-03T08:46:37Z
2021-05-03T06:48:30Z,42.805,6.029,13.2986,4.59991,2469.923,2021-5-03T08:49:40Z
2021-05-03T06:51:33Z,42.805,6.029,13.2984,4.59991,2469.89,2021-5-03T08:52:43Z
2021-05-03T06:54:36Z,42.805,6.029,13.2983,4.59991,2469.9,2021-5-03T08:55:46Z
2021-05-03T06:57:40Z,42.805,6.029,13.2986,4.59991,2469.923,2021-5-03T08:58:50Z
2021-05-03T07:00:43Z,42.805,6.029,13.2986,4.59991,2469.9,2021-5-03T09:01:53Z
2021-05-03T07:03:46Z,42.805,6.029,13.2986,4.59991,2469.9,2021-5-03T09:04:56Z
2021-05-03T07:06:49Z,42.805,6.029,13.2986,4.59991,2469.937,2021-5-03T09:07:59Z
2021-05-03T07:09:52Z,42.805,6.029,13.2986,4.59991,2469.937,2021-5-03T09:11:02Z
2021-05-03T07:12:55Z,42.805,6.029,13.2983,4.59991,2469.914,2021-5-03T09:14:05Z
2021-05-03T07:15:58Z,42.805,6.029,13.2983,4.59992,2469.876,2021-5-03T09:17:08Z
2021-05-03T07:19:01Z,42.805,6.029,13.2988,4.59991,2469.9,2021-5-03T09:20:11Z
2021-05-03T07:22:04Z,42.805,6.029,13.2986,4.59994,2469.876,2021-5-03T09:23:15Z
2021-05-03T07:25:08Z,42.805,6.029,13.2985,4.59992,2469.9,2021-5-03T09:26:18Z
2021-05-03T07:28:11Z,42.805,6.029,13.2985,4.59994,2469.923,2021-5-03T09:29:21Z
2021-05-03T07:31:14Z,42.805,6.029,13.2983,4.59991,2469.937,2021-5-03T09:32:24Z
2021-05-03T07:34:17Z,42.805,6.029,13.2985,4.59991,2469.937,2021-5-03T09:35:27Z
2021-05-03T07:37:20Z,42.805,6.029,13.2986,4.59989,2469.923,2021-5-03T09:38:30Z
2021-05-03T07:40:23Z,42.805,6.029,13.2989,4.59991,2469.923,2021-5-03T09:41:33Z
2021-05-03T07:43:26Z,42.805,6.029,13.2986,4.59991,2469.9,2021-5-03T09:44:36Z
2021-05-03T07:46:29Z,42.805,6.029,13.2986,4.59991,2469.914,2021-5-03T09:47:39Z
2021-05-03T07:49:33Z,42.805,6.029,13.2987,4.59991,2469.9,2021-5-03T09:50:43Z
2021-05-03T07:52:36Z,42.805,6.029,13.2986,4.59992,2469.9,2021-5-03T09:53:46Z
2021-05-03T07:55:39Z,42.805,6.029,13.2984,4.59991,2469.9,2021-5-03T09:56:49Z
2021-05-03T07:58:42Z,42.805,6.029,13.2979,4.59989,2469.853,2021-5-03T09:59:52Z
2021-05-03T08:01:45Z,42.805,6.029,13.2986,4.59991,2469.923,2021-5-03T10:02:55Z
2021-05-03T08:04:48Z,42.805,6.029,13.2986,4.59994,2469.876,2021-5-03T10:05:58Z
2021-05-03T08:07:51Z,42.805,6.029,13.2984,4.59991,2469.923,2021-5-03T10:09:01Z
2021-05-03T08:10:54Z,42.805,6.029,13.2986,4.59990,2469.9,2021-5-03T10:12:04Z
2021-05-03T08:13:58Z,42.805,6.029,13.2983,4.59990,2469.886,2021-5-03T10:15:08Z
2021-05-03T08:17:01Z,42.805,6.029,13.2983,4.59990,2469.914,2021-5-03T10:18:11Z
2021-05-03T08:20:04Z,42.805,6.029,13.2985,4.59990,2469.914,2021-5-03T10:21:14Z
2021-05-03T08:23:07Z,42.805,6.029,13.2982,4.59991,2469.89,2021-5-03T10:24:17Z
2021-05-03T08:26:10Z,42.805,6.029,13.2987,4.59991,2469.876,2021-5-03T10:27:20Z
2021-05-03T08:29:13Z,42.805,6.029,13.2986,4.59992,2469.923,2021-5-03T10:30:23Z
2021-05-03T08:32:16Z,42.805,6.029,13.2985,4.59989,2469.9,2021-5-03T10:33:26Z
2021-05-03T08:35:19Z,42.805,6.029,13.2983,4.59991,2469.9,2021-5-03T10:36:29Z
2021-05-03T08:38:22Z,42.805,6.029,13.2983,4.59990,2469.9,2021-5-03T10:39:33Z
2021-05-03T08:41:26Z,42.805,6.029,13.2986,4.59992,2469.914,2021-5-03T10:42:36Z
2021-05-03T08:44:29Z,42.805,6.029,13.2984,4.59991,2469.9,2021-5-03T10:45:39Z
2021-05-03T08:47:32Z,42.805,6.029,13.2981,4.59991,2469.89,2021-5-03T10:48:42Z
2021-05-03T08:50:35Z,42.805,6.029,13.2987,4.59991,2469.914,2021-5-03T10:51:45Z
2021-05-03T08:53:38Z,42.805,6.029,13.2983,4.59990,2469.914,2021-5-03T10:54:48Z
2021-05-03T08:56:41Z,42.805,6.029,13.2983,4.59991,2469.876,2021-5-03T10:57:51Z
2021-05-03T08:59:44Z,42.805,6.029,13.2985,4.59990,2469.937,2021-5-03T11:00:54Z
2021-05-03T09:02:48Z,42.805,6.029,13.2985,4.59990,2469.886,2021-5-03T11:03:58Z
2021-05-03T09:05:51Z,42.805,6.029,13.2988,4.59991,2469.914,2021-5-03T11:07:01Z
2021-05-03T09:08:54Z,42.805,6.029,13.2985,4.59991,2469.9,2021-5-03T11:10:04Z
2021-05-03T09:11:57Z,42.805,6.029,13.2983,4.59991,2469.937,2021-5-03T11:13:07Z
2021-05-03T09:15:00Z,42.805,6.029,13.2984,4.59991,2469.937,2021-5-03T11:16:10Z
2021-05-03T09:18:03Z,42.805,6.029,13.2986,4.59990,2469.937,2021-5-03T11:19:13Z
2021-05-03T09:21:06Z,42.805,6.029,13.2986,4.59991,2469.937,2021-5-03T11:22:16Z
2021-05-03T09:24:09Z,42.805,6.029,13.2989,4.59991,2469.9,2021-5-03T11:25:19Z
2021-05-03T09:27:12Z,42.805,6.029,13.2984,4.59991,2469.937,2021-5-03T11:28:23Z
2021-05-03T09:30:16Z,42.805,6.029,13.2986,4.59991,2469.937,2021-5-03T11:31:26Z
2021-05-03T09:33:19Z,42.805,6.029,13.2983,4.59991,2469.937,2021-5-03T11:34:29Z
2021-05-03T09:36:22Z,42.805,6.029,13.2988,4.59989,2469.923,2021-5-03T11:37:32Z
2021-05-03T09:39:25Z,42.805,6.029,13.2983,4.59991,2469.937,2021-5-03T11:40:35Z
2021-05-03T09:42:28Z,42.805,6.029,13.2986,4.59992,2469.914,2021-5-03T11:43:38Z
2021-05-03T09:45:31Z,42.805,6.029,13.2986,4.59990,2469.937,2021-5-03T11:46:41Z
2021-05-03T09:48:34Z,42.805,6.029,13.2986,4.59990,2469.923,2021-5-03T11:49:44Z
2021-05-03T09:51:37Z,42.805,6.029,13.2986,4.59991,2469.9,2021-5-03T11:52:48Z
2021-05-03T09:54:41Z,42.805,6.029,13.2987,4.59991,2469.937,2021-5-03T11:55:51Z
2021-05-03T09:57:44Z,42.805,6.029,13.2986,4.59990,2469.923,2021-5-03T11:58:54Z
2021-05-03T10:00:47Z,42.805,6.029,13.2989,4.59992,2469.96,2021-5-03T12:01:57Z
2021-05-03T10:03:50Z,42.805,6.029,13.2983,4.59992,2469.96,2021-5-03T12:05:00Z
2021-05-03T10:06:53Z,42.805,6.029,13.2986,4.59991,2469.947,2021-5-03T12:08:03Z
2021-05-03T10:09:56Z,42.805,6.029,13.2983,4.59991,2469.97,2021-5-03T12:11:06Z
2021-05-03T10:12:59Z,42.805,6.029,13.2985,4.59992,2469.937,2021-5-03T12:14:09Z
2021-05-03T10:16:02Z,42.805,6.029,13.2985,4.59992,2469.947,2021-5-03T12:17:12Z
2021-05-03T10:19:06Z,42.805,6.029,13.2983,4.59991,2469.923,2021-5-03T12:20:16Z
2021-05-03T10:22:09Z,42.805,6.029,13.2986,4.59990,2469.96,2021-5-03T12:23:19Z
2021-05-03T10:25:12Z,42.805,6.029,13.2984,4.59991,2469.96,2021-5-03T12:26:22Z
2021-05-03T10:28:15Z,42.805,6.029,13.2983,4.59991,2469.947,2021-5-03T12:29:25Z
2021-05-03T10:31:18Z,42.805,6.029,13.2988,4.59990,2469.923,2021-5-03T12:32:28Z
2021-05-03T10:34:21Z,42.805,6.029,13.2984,4.59991,2469.914,2021-5-03T12:35:31Z
2021-05-03T10:37:24Z,42.805,6.029,13.2982,4.59991,2469.923,2021-5-03T12:38:34Z
2021-05-03T10:40:27Z,42.805,6.029,13.2988,4.59991,2469.937,2021-5-03T12:41:37Z
2021-05-03T10:43:31Z,42.805,6.029,13.2985,4.59990,2469.937,2021-5-03T12:44:41Z
2021-05-03T10:46:34Z,42.805,6.029,13.2989,4.59990,2469.914,2021-5-03T12:47:44Z
2021-05-03T10:49:37Z,42.805,6.029,13.2983,4.59990,2469.96,2021-5-03T12:50:47Z
2021-05-03T10:52:40Z,42.805,6.029,13.2991,4.59991,2469.947,2021-5-03T12:53:50Z
2021-05-03T10:55:43Z,42.805,6.029,13.2983,4.59991,2469.947,2021-5-03T12:56:53Z
2021-05-03T10:58:46Z,42.805,6.029,13.2984,4.59991,2469.947,2021-5-03T12:59:56Z
2021-05-03T11:01:49Z,42.805,6.029,13.2986,4.59990,2469.97,2021-5-03T13:02:59Z
2021-05-03T11:04:52Z,42.805,6.029,13.2984,4.59991,2469.923,2021-5-03T13:06:02Z
2021-05-03T11:07:55Z,42.805,6.029,13.2988,4.59990,2469.923,2021-5-03T13:09:06Z
2021-05-03T11:10:59Z,42.805,6.029,13.2986,4.59990,2469.947,2021-5-03T13:12:09Z
2021-05-03T11:14:02Z,42.805,6.029,13.2986,4.59990,2469.947,2021-5-03T13:15:12Z
2021-05-03T11:17:05Z,42.805,6.029,13.2984,4.59989,2469.947,2021-5-03T13:18:15Z
2021-05-03T11:20:08Z,42.805,6.029,13.2990,4.59990,2469.933,2021-5-03T13:21:18Z
2021-05-03T11:23:11Z,42.805,6.029,13.2983,4.59990,2469.937,2021-5-03T13:24:21Z
2021-05-03T11:26:14Z,42.805,6.029,13.2990,4.59990,2469.947,2021-5-03T13:27:24Z
2021-05-03T11:29:17Z,42.805,6.029,13.2985,4.59990,2469.947,2021-5-03T13:30:27Z
2021-05-03T11:32:20Z,42.805,6.029,13.2986,4.59990,2469.937,2021-5-03T13:33:31Z
2021-05-03T11:35:24Z,42.805,6.029,13.2984,4.59991,2469.923,2021-5-03T13:36:34Z
2021-05-03T11:38:27Z,42.805,6.029,13.2986,4.59989,2469.984,2021-5-03T13:39:37Z
2021-05-03T11:41:30Z,42.805,6.029,13.2981,4.59990,2469.914,2021-5-03T13:42:40Z
2021-05-03T11:44:33Z,42.805,6.029,13.2983,4.59989,2469.947,2021-5-03T13:45:43Z
2021-05-03T11:47:36Z,42.805,6.029,13.2989,4.59991,2469.923,2021-5-03T13:48:46Z
2021-05-03T11:50:39Z,42.805,6.029,13.2984,4.59989,2469.947,2021-5-03T13:51:49Z
2021-05-03T11:53:42Z,42.805,6.029,13.2986,4.59990,2469.947,2021-5-03T13:54:52Z
2021-05-03T11:56:45Z,42.805,6.029,13.2984,4.59990,2469.923,2021-5-03T13:57:55Z
2021-05-03T11:59:49Z,42.805,6.029,13.2989,4.59989,2469.923,2021-5-03T14:00:59Z
2021-05-03T12:02:52Z,42.805,6.029,13.2986,4.59989,2469.947,2021-5-03T14:04:02Z
2021-05-03T12:05:55Z,42.805,6.029,13.2984,4.59989,2469.947,2021-5-03T14:07:05Z
2021-05-03T12:08:58Z,42.805,6.029,13.2984,4.59991,2469.947,2021-5-03T14:10:08Z
2021-05-03T12:12:01Z,42.805,6.029,13.2981,4.59989,2469.923,2021-5-03T14:13:11Z
2021-05-03T12:15:04Z,42.805,6.029,13.2985,4.59989,2469.937,2021-5-03T14:16:14Z
2021-05-03T12:18:07Z,42.805,6.029,13.2987,4.59991,2469.9,2021-5-03T14:19:17Z
2021-05-03T12:21:10Z,42.805,6.029,13.2989,4.59990,2469.923,2021-5-03T14:22:20Z
2021-05-03T12:24:14Z,42.805,6.029,13.2982,4.59990,2469.947,2021-5-03T14:25:24Z
2021-05-03T12:27:17Z,42.805,6.029,13.2990,4.59989,2469.9,2021-5-03T14:28:27Z
2021-05-03T12:30:20Z,42.805,6.029,13.2987,4.59990,2469.923,2021-5-03T14:31:30Z
2021-05-03T12:33:23Z,42.805,6.029,13.2983,4.59991,2469.947,2021-5-03T14:34:33Z
2021-05-03T12:36:26Z,42.805,6.029,13.2985,4.59991,2469.947,2021-5-03T14:37:36Z
2021-05-03T12:39:29Z,42.805,6.029,13.2986,4.59991,2469.96,2021-5-03T14:40:39Z
2021-05-03T12:42:32Z,42.805,6.029,13.2987,4.59989,2469.923,2021-5-03T14:43:42Z
2021-05-03T12:45:35Z,42.805,6.029,13.2982,4.59991,2469.947,2021-5-03T14:46:45Z
2021-05-03T12:48:39Z,42.805,6.029,13.2986,4.59991,2469.937,2021-5-03T14:49:49Z
2021-05-03T12:51:42Z,42.805,6.029,13.2987,4.59993,2469.923,2021-5-03T14:52:52Z
2021-05-03T12:54:45Z,42.805,6.029,13.2986,4.59990,2469.937,2021-5-03T14:55:55Z
2021-05-03T12:57:48Z,42.805,6.029,13.2986,4.59990,2469.9,2021-5-03T14:58:58Z
2021-05-03T13:00:51Z,42.805,6.029,13.2985,4.59989,2469.923,2021-5-03T15:02:01Z
2021-05-03T13:03:54Z,42.805,6.029,13.2985,4.59989,2469.9,2021-5-03T15:05:04Z
2021-05-03T13:06:57Z,42.805,6.029,13.2987,4.59991,2469.937,2021-5-03T15:08:07Z
2021-05-03T13:10:00Z,42.805,6.029,13.2985,4.59989,2469.947,2021-5-03T15:11:10Z
2021-05-03T13:13:04Z,42.805,6.029,13.2986,4.59990,2469.947,2021-5-03T15:14:14Z
2021-05-03T13:16:07Z,42.805,6.029,13.2982,4.59988,2469.96,2021-5-03T15:17:17Z
2021-05-03T13:19:10Z,42.805,6.029,13.2986,4.59989,2469.937,2021-5-03T15:20:20Z
2021-05-03T13:22:13Z,42.805,6.029,13.2983,4.59988,2469.937,2021-5-03T15:23:23Z
2021-05-03T13:25:16Z,42.805,6.029,13.2984,4.59991,2469.937,2021-5-03T15:26:26Z
2021-05-03T13:28:19Z,42.805,6.029,13.2984,4.59990,2469.947,2021-5-03T15:29:29Z
2021-05-03T13:31:22Z,42.805,6.029,13.2984,4.59990,2469.9,2021-5-03T15:32:32Z
2021-05-03T13:34:25Z,42.805,6.029,13.2984,4.59990,2469.923,2021-5-03T15:35:35Z
2021-05-03T13:37:28Z,42.805,6.029,13.2985,4.59989,2469.937,2021-5-03T15:38:39Z
2021-05-03T13:40:32Z,42.805,6.029,13.2983,4.59990,2469.9,2021-5-03T15:41:42Z
2021-05-03T13:43:35Z,42.805,6.029,13.2983,4.59990,2469.9,2021-5-03T15:44:45Z
2021-05-03T13:46:38Z,42.805,6.029,13.2982,4.59990,2469.923,2021-5-03T15:47:48Z
2021-05-03T13:49:41Z,42.805,6.029,13.2987,4.59988,2469.9,2021-5-03T15:50:51Z
2021-05-03T13:52:44Z,42.805,6.029,13.2985,4.59990,2469.9,2021-5-03T15:53:54Z
2021-05-03T13:55:47Z,42.805,6.029,13.2986,4.59990,2469.9,2021-5-03T15:56:57Z
2021-05-03T13:58:50Z,42.805,6.029,13.2986,4.59989,2469.9,2021-5-03T16:00:00Z
2021-05-03T14:01:53Z,42.805,6.029,13.2983,4.59989,2469.923,2021-5-03T16:03:04Z
2021-05-03T14:04:57Z,42.805,6.029,13.2987,4.59990,2469.937,2021-5-03T16:06:07Z
2021-05-03T14:08:00Z,42.805,6.029,13.2986,4.59991,2469.914,2021-5-03T16:09:10Z
2021-05-03T14:11:03Z,42.805,6.029,13.2985,4.59990,2469.876,2021-5-03T16:12:13Z
2021-05-03T14:14:06Z,42.805,6.029,13.2986,4.59991,2469.923,2021-5-03T16:15:16Z
2021-05-03T14:17:09Z,42.805,6.029,13.2988,4.59989,2469.937,2021-5-03T16:18:19Z
2021-05-03T14:20:12Z,42.805,6.029,13.2984,4.59988,2469.96,2021-5-03T16:21:22Z
2021-05-03T14:23:15Z,42.805,6.029,13.2987,4.59989,2469.923,2021-5-03T16:24:25Z
2021-05-03T14:26:18Z,42.805,6.029,13.2984,4.59990,2469.937,2021-5-03T16:27:29Z
2021-05-03T14:29:22Z,42.805,6.029,13.2984,4.59991,2469.937,2021-5-03T16:30:32Z
2021-05-03T14:32:25Z,42.805,6.029,13.2984,4.59991,2469.937,2021-5-03T16:33:35Z
2021-05-03T14:35:28Z,42.805,6.029,13.2985,4.59989,2469.923,2021-5-03T16:36:38Z
2021-05-03T14:38:31Z,42.805,6.029,13.2985,4.59990,2469.923,2021-5-03T16:39:41Z
2021-05-03T14:41:34Z,42.805,6.029,13.2986,4.59991,2469.923,2021-5-03T16:42:44Z
2021-05-03T14:44:37Z,42.805,6.029,13.2981,4.59990,2469.89,2021-5-03T16:45:47Z
2021-05-03T14:47:40Z,42.805,6.029,13.2986,4.59988,2469.914,2021-5-03T16:48:50Z
2021-05-03T14:50:43Z,42.805,6.029,13.2984,4.59988,2469.876,2021-5-03T16:51:54Z
2021-05-03T14:53:47Z,42.805,6.029,13.2985,4.59989,2469.9,2021-5-03T16:54:57Z
2021-05-03T14:56:50Z,42.805,6.029,13.2986,4.59990,2469.923,2021-5-03T16:58:00Z
2021-05-03T14:59:53Z,42.805,6.029,13.2985,4.59988,2469.947,2021-5-03T17:01:03Z
2021-05-03T15:02:56Z,42.805,6.029,13.2983,4.59988,2469.9,2021-5-03T17:04:06Z
2021-05-03T15:05:59Z,42.805,6.029,13.2990,4.59989,2469.89,2021-5-03T17:07:09Z
2021-05-03T15:09:02Z,42.805,6.029,13.2987,4.59990,2469.923,2021-5-03T17:10:12Z
2021-05-03T15:12:05Z,42.805,6.029,13.2987,4.59989,2469.923,2021-5-03T17:13:15Z
2021-05-03T15:15:08Z,42.805,6.029,13.2984,4.59989,2469.9,2021-5-03T17:16:19Z